Flag for Netherlands Weather past 2 weeks in Arnhem, Netherlands

Now
41 °F

Mostly cloudy.


Feels Like: 35 °F
Forecast: 34 / 41 °F
Wind: 9 mph from Northwest

Location: Deelen

Current Time: Jan 26, 2015 at 7:47:17 PM

Latest Report: Jan 26, 2015 at 6:55 PM


Visibility: N/A

Pressure: 30.07 "Hg

Humidity: 87%

Dew point: 37 °F

Location of ArnhemLocation

Historic Weather in Arnhem — Graph

°F

Arnhem temperature yesterday

Maximum temperature yesterday: 37 °F (at 11:25 AM)
Minimum temperature yesterday: 21 °F (at 3:25 AM)
Average temperature yesterday: 33 °F

Past Weeks' High & Low Weather Summary

 TemperatureHumidityPressure
High50 °F (Jan 13, 1:25 AM)100% (Jan 12, 11:25 PM)30.39 "Hg (Jan 12, 11:25 PM)
Low21 °F (Jan 25, 3:25 AM)65% (Jan 17, 4:55 PM)29.33 "Hg (Jan 15, 1:25 PM)
Average36 °F90%29.91 "Hg
* Reported Jan 11 6:25 PM — Jan 26 6:55 PM, Arnhem, Weather by CustomWeather, © 2014

Note: Actual official high and low records may vary slightly from our data, if they occured in-between our weather recording intervals... More about our weather records

Advertising

Arnhem weather history for previous 24 hours

 ConditionsComfort  
Time TempWeatherWind HumidityBarometerVisibility
6:55 PM
Jan 26
41 °FMostly cloudy.9 mph87%30.07 "HgN/A
6:25 PM41 °FPartly cloudy.8 mph93%30.07 "HgN/A
5:55 PM43 °FPartly cloudy.10 mph87%30.04 "HgN/A
5:25 PM43 °FPassing clouds.10 mph87%30.04 "HgN/A
4:55 PM45 °FBroken clouds.9 mph87%30.04 "HgN/A
4:25 PM45 °FCloudy.10 mph87%30.01 "HgN/A
3:55 PM45 °FMore clouds than sun.8 mph93%30.01 "HgN/A
3:25 PM45 °FMore clouds than sun.10 mph93%30.01 "HgN/A
2:55 PM45 °FDrizzle. Mostly cloudy.9 mph100%30.01 "Hg2 mi
2:25 PM45 °FLight rain. More clouds than sun.8 mph100%30.01 "Hg1 mi
1:55 PM43 °FDrizzle. Mostly cloudy.8 mph100%30.01 "Hg1 mi
1:25 PM43 °FDrizzle. Mostly cloudy.9 mph93%30.01 "Hg1 mi
12:55 PM41 °FDrizzle. Partly sunny.8 mph100%30.04 "Hg1 mi
12:25 PM39 °FLight rain. Mostly cloudy.9 mph100%30.04 "Hg1 mi
11:55 AM39 °FFog.10 mph100%30.07 "Hg1 mi
11:25 AM39 °FFog.10 mph100%30.07 "Hg1 mi
10:55 AM39 °FLight rain. Dense fog.10 mph100%30.07 "Hg1 mi
10:25 AM39 °FLight rain. Dense fog.10 mph100%30.09 "Hg1 mi
9:55 AM39 °FDrizzle. Partly sunny.12 mph93%30.09 "Hg1 mi
9:25 AM37 °FFog.12 mph100%30.09 "Hg1 mi
8:55 AM37 °FDrizzle. Low clouds.12 mph100%30.09 "Hg1 mi
8:25 AM37 °FPassing clouds.10 mph100%30.12 "Hg1 mi
7:55 AM37 °FLight rain. Mostly cloudy.12 mph100%30.12 "Hg1 mi
7:25 AM37 °FFog.10 mph100%30.12 "Hg1 mi
6:55 AM37 °FFog.10 mph100%30.12 "Hg1 mi
6:25 AM37 °FLight rain. Passing clouds.10 mph100%30.12 "Hg1 mi
5:55 AM37 °FDrizzle. Mostly cloudy.12 mph100%30.15 "Hg1 mi
5:25 AM37 °FDrizzle. Low clouds.10 mph100%30.15 "Hg1 mi
4:55 AM37 °FFog.10 mph100%30.18 "Hg1 mi
4:25 AM37 °FFog.10 mph100%30.18 "Hg1 mi
3:55 AM37 °FFog.12 mph100%30.21 "Hg2 mi
3:25 AM37 °FFog.12 mph100%30.21 "Hg2 mi
2:55 AM37 °FFog.10 mph100%30.21 "Hg2 mi
2:25 AM37 °FFog.9 mph93%30.24 "Hg2 mi
1:55 AM37 °FDrizzle. Overcast.8 mph93%30.24 "Hg2 mi
1:25 AM37 °FLight rain. Mostly cloudy.9 mph93%30.24 "Hg2 mi
12:55 AM37 °FDrizzle. Mostly cloudy.6 mph93%30.24 "Hg2 mi
12:25 AM37 °FFog.7 mph100%30.27 "Hg2 mi
11:55 PM
Jan 25
37 °FPassing clouds.8 mph100%30.27 "Hg2 mi
11:25 PM37 °FFog.8 mph100%30.27 "Hg2 mi
10:55 PM37 °FFog.8 mph100%30.27 "Hg2 mi
10:25 PM37 °FFog.8 mph100%30.30 "Hg2 mi
9:55 PM37 °FFog.9 mph100%30.30 "Hg2 mi
9:25 PM37 °FLight rain. Mostly cloudy.8 mph100%30.30 "Hg2 mi
8:55 PM37 °FLight rain. Passing clouds.8 mph100%30.30 "Hg2 mi
8:25 PM37 °FDrizzle. Mostly cloudy.8 mph100%30.33 "Hg1 mi
7:55 PM37 °FDrizzle. Mostly cloudy.7 mph100%30.33 "Hg2 mi
7:25 PM37 °FFog.7 mph100%30.33 "Hg1 mi
Weather by CustomWeather, © 2014

See weather overviewHow to use our weather pages